[[{"header":{"parameterUnit":"m.s-1","parameterCategory":1,"la1":30.2991,"la2":30.254,"lo1":-89.0895,"lo2":-89.0444,"dy":0.0017,"dx":0.0017,"nx":28,"ny":28,"refTime":"2024-04-27T09:00:00:Z","depth":0,"parameterNumber":2,"parameterNumberName":"U-component_of_WINDS"},"data":[0,0,0,0,0,0,0,0,0,0,0,0,0,0,0,0,0,0,0,0,0,0,0,0,0,0,0,0,0,0,0,0,0,0,0,0,0,0,0,0,0,0,0,0,0,0,0,0,0,0,0,0,0,0,0,0,0,0,-5.9138,-5.914,0,-5.9286,-5.9287,-5.9289,-5.928,-5.9278,-5.9276,-5.9274,-5.9422,-5.9428,-5.9434,0,0,0,0,0,0,0,0,0,0,0,0,0,-5.8847,-5.8853,-5.9138,-5.914,-5.9142,-5.9286,-5.9288,-5.929,-5.9281,-5.9278,-5.9276,-5.9273,-5.942,-5.9427,-5.9434,0,0,0,0,0,0,0,0,0,0,0,0,0,-5.8982,-5.8854,-5.9138,-5.9155,-5.9158,-5.9285,-5.9288,-5.929,-5.9281,-5.9278,-5.9275,-5.9272,-5.9418,-5.9426,-5.9435,-5.9554,0,0,-5.9462,-5.9466,0,0,0,0,0,0,0,0,-5.8974,-5.8993,-5.9151,-5.9154,-5.9158,-5.9262,-5.9239,-5.9378,-5.9282,-5.9234,-5.9274,-5.927,-5.9371,-5.9384,-5.9418,-5.9561,-5.9567,-5.9463,-5.9468,-5.9472,-5.9475,0,0,0,0,0,0,0,-5.8965,-5.8986,-5.9197,-5.9153,-5.9157,-5.9155,-5.917,-5.9265,-5.9319,-5.9238,-5.9238,-5.9256,-5.9372,-5.941,-5.9421,-5.9569,-5.9463,-5.9471,-5.9476,-5.948,-5.9817,-5.982,0,0,0,0,0,0,-5.8952,-5.8978,-5.9192,-5.9201,-5.9056,-5.9162,-5.918,-5.9231,-5.9318,-5.9328,-5.9258,-5.9255,-5.9396,-5.9411,-5.9427,-5.957,-5.9472,-5.9481,-5.9486,-5.9813,-5.9817,-5.9821,0,0,0,0,0,0,-5.8946,-5.8971,-5.9186,-5.909,-5.9117,-5.9171,-5.9229,-5.9236,-5.9273,-5.9333,-5.9342,-5.9287,-5.9394,-5.9414,-5.9522,-5.9575,-5.9485,-5.9493,-5.9809,-5.9814,-5.9819,-5.9859,0,0,0,0,0,0,-5.8938,-5.8969,-5.9015,-5.9091,-5.9122,-5.928,-5.9232,-5.9241,-5.9289,-5.9286,-5.9362,-5.9371,-5.9393,-5.9509,-5.9531,-5.9586,-5.95,-5.9804,-5.9811,-5.9818,-5.9853,-5.9865,-5.9875,0,0,0,0,0,-5.8927,-5.902,-5.9018,-5.9043,-5.9181,-5.9283,-5.9301,-5.9324,-5.9293,-5.9339,-5.9378,-5.9369,-5.9567,-5.952,-5.9545,-5.9603,-5.9801,-5.9809,-5.9817,-5.9848,-5.9862,-5.9875,0,0,0,0,0,0,-5.8948,-5.903,-5.9028,-5.9148,-5.9209,-5.9281,-5.934,-5.9339,-5.9409,-5.9403,-5.9429,-5.9446,-5.9554,-5.959,-5.9537,-5.9722,-5.968,-5.9693,-5.9694,-5.9709,-5.972,-5.9707,-5.9507,0,0,0,0,0,-5.8966,-5.9043,-5.9111,-5.921,-5.9241,-5.9286,-5.9331,-5.9344,-5.9407,-5.9433,-5.9479,-5.954,-5.9616,-5.9665,-5.9738,-5.9859,-5.9875,-5.9911,-5.9923,-5.9931,-5.9941,-6.0007,-6.0024,-5.9848,-5.9848,-5.9848,0,0,-5.9005,-5.906,-5.9106,-5.9216,-5.9264,-5.9342,-5.9307,-5.9391,-5.9448,-5.9445,-5.9549,-5.9586,-5.9656,-5.9771,-5.9824,-5.9804,-5.9994,-5.9942,-5.9948,-5.9954,-6.0017,-6.0034,-6.0048,-5.9853,-5.9852,-5.9852,0,0,-5.9115,-5.9165,-5.9253,-5.9302,-5.9377,-5.9406,-5.9427,-5.9501,-5.9525,-5.9631,-5.963,-5.9699,-5.9829,-5.9879,-5.9921,-6.0052,-6.0045,-6.0075,-6.0131,-6.0195,-6.0209,-6.0221,-6.0265,-6.0281,-6.0086,-6.0086,-6.0086,0,-5.9153,-5.9271,-5.9298,-5.9382,-5.943,-5.9432,-5.9521,-5.9567,-5.9661,-5.9694,-5.9671,-5.9835,-5.9882,-6.0008,-6.004,-6.0075,-6.0098,-6.0064,-6.0205,-6.0218,-6.0229,-6.0272,-6.0289,-6.0089,-6.0088,-6.0088,-6.0088,0,-5.9314,-5.9396,-5.9458,-5.9549,-5.9604,-5.969,-5.9729,-5.9781,-5.9791,-5.9823,-5.993,-5.9988,-6.0072,-6.0104,-6.0113,-6.0231,-6.0216,-6.0199,-6.0156,-6.0248,-6.0289,-6.0306,-6.0093,-6.0092,-6.0091,-6.009,0,0,-5.9437,-5.9544,-5.9566,-5.9607,-5.969,-5.9753,-5.984,-5.9924,-5.9967,-6.0033,-6.0104,-6.0216,-6.0201,-6.0249,-6.0264,-6.0321,-6.0418,-6.0297,-6.0298,-6.0315,-6.055,-6.056,-6.0578,-6.0416,-6.042,-6.0422,-6.0543,0,-5.9554,-5.9707,-5.9734,-5.9867,-5.9943,-5.9947,-6.0022,-6.0081,-6.0113,-6.0182,-6.0218,-6.0295,-6.027,-6.0299,-6.0355,-6.0394,-6.0465,-6.0387,-6.0481,-6.0484,-6.046,-6.06,-6.0611,-6.0722,-6.0559,-6.0562,-6.0564,0,-5.9709,-5.9779,-5.992,-5.9993,-6.0026,-6.0093,-6.0171,-6.0237,-6.0304,-6.0324,-6.0378,-6.0388,-6.0477,-6.0433,-6.0555,-6.05,-6.0541,-6.0567,-6.0572,-6.0579,-6.0527,-6.0608,-6.0758,-6.0773,-6.0589,-6.0587,-6.0586,0,-5.9782,-5.9912,-6.0013,-6.0049,-6.0137,-6.0183,-6.0222,-6.0286,-6.0335,-6.0404,-6.0435,-6.0514,-6.0556,-6.0616,-6.0646,-6.0612,-6.0766,-6.0725,-6.0783,-6.0782,-6.0812,-6.0809,-6.0968,-6.0844,-6.0844,-6.0844,-6.0843,0,-5.9907,-5.9993,-6.0047,-6.0109,-6.0205,-6.0235,-6.0329,-6.0367,-6.0424,-6.0492,-6.0502,-6.0566,-6.0604,-6.0673,-6.0698,-6.0794,-6.0814,-6.0831,-6.0836,-6.0829,-6.0826,-6.0853,-6.0845,-6.0848,-6.0847,-6.0846,-6.0846,0,-6.0003,-6.0043,-6.0153,-6.0229,-6.0249,-6.0316,-6.038,-6.044,-6.0474,-6.056,-6.0582,-6.0634,-6.0717,-6.0754,-6.0856,-6.0872,-6.0981,-6.0982,-6.0958,-6.0959,-6.1015,-6.1008,-6.1194,-6.1219,-6.1081,-6.1082,-6.1084,0,-6.0079,-6.0145,-6.0227,-6.0274,-6.0315,-6.039,-6.044,-6.0474,-6.0525,-6.0607,-6.0656,-6.0739,-6.0807,-6.0938,-6.0984,-6.1062,-6.1063,-6.1123,-6.1075,-6.1065,-6.1061,-6.1056,-6.1061,-6.1131,-6.1132,-6.1133,-6.1134,0,-6.0208,-6.0225,-6.0297,-6.0376,-6.0436,-6.0499,-6.0562,-6.06,-6.0643,-6.07,-6.0785,-6.0837,-6.0942,-6.1023,-6.1104,-6.1144,-6.1146,-6.115,-6.1167,-6.1158,-6.1141,-6.1148,-6.0979,-6.1144,-6.1143,-6.1143,-6.1142,-6.1142,-6.0295,-6.0353,-6.0421,-6.05,-6.0551,-6.0609,-6.0669,-6.071,-6.0782,-6.0869,-6.0885,-6.0975,-6.104,-6.1149,-6.1192,-6.1262,-6.1247,-6.1273,-6.1279,-6.1284,-6.1286,-6.1132,-6.1277,-6.1277,-6.1277,-6.1277,-6.1276,0,-6.0423,-6.0467,-6.054,-6.0627,-6.0689,-6.0688,-6.0758,-6.0809,-6.0888,-6.095,-6.1017,-6.1114,-6.1193,-6.1247,-6.1327,-6.1373,-6.1376,-6.1393,-6.1388,-6.1397,-6.1295,-6.1271,-6.1389,-6.1389,-6.1389,-6.1389,-6.1389,-6.1389,-6.0496,-6.0595,-6.062,-6.0743,-6.0786,-6.0874,-6.0914,-6.0967,-6.1016,-6.1124,-6.1191,-6.1226,-6.1284,-6.1369,-6.1441,-6.1455,-6.1483,-6.15,-6.1513,-6.1416,-6.1404,-6.1393,-6.137,-6.1507,-6.1507,-6.1608,-6.1609,-6.1609]},{"header":{"parameterUnit":"m.s-1","parameterCategory":1,"la1":30.2991,"la2":30.254,"lo1":-89.0895,"lo2":-89.0444,"dy":0.0017,"dx":0.0017,"nx":28,"ny":28,"refTime":"2024-04-27T09:00:00:Z","depth":0,"parameterNumber":3,"parameterNumberName":"V-component_of_WINDS"},"data":[0,0,0,0,0,0,0,0,0,0,0,0,0,0,0,0,0,0,0,0,0,0,0,0,0,0,0,0,0,0,0,0,0,0,0,0,0,0,0,0,0,0,0,0,0,0,0,0,0,0,0,0,0,0,0,0,0,0,5.4156,5.4157,0,5.4269,5.427,5.4271,5.4252,5.425,5.4248,5.4247,5.4356,5.436,5.4365,0,0,0,0,0,0,0,0,0,0,0,0,0,5.392,5.3924,5.4156,5.4157,5.4159,5.4268,5.427,5.4272,5.4253,5.425,5.4248,5.4246,5.4354,5.436,5.4365,0,0,0,0,0,0,0,0,0,0,0,0,0,5.4026,5.3926,5.4156,5.4163,5.4165,5.4268,5.427,5.4272,5.4253,5.425,5.4247,5.4245,5.4352,5.4359,5.4366,5.4468,0,0,5.4388,5.4391,0,0,0,0,0,0,0,0,5.402,5.4035,5.416,5.4163,5.4165,5.4244,5.4227,5.4337,5.4254,5.4219,5.4247,5.4243,5.432,5.433,5.4357,5.4473,5.4478,5.4388,5.4393,5.4396,5.4398,0,0,0,0,0,0,0,5.4013,5.403,5.42,5.4162,5.4165,5.4159,5.4171,5.4248,5.4284,5.4222,5.4221,5.4235,5.4321,5.435,5.436,5.4479,5.4388,5.4394,5.4399,5.4402,5.4686,5.4689,0,0,0,0,0,0,5.4004,5.4024,5.4197,5.4204,5.4084,5.4165,5.4179,5.4221,5.4284,5.4291,5.4237,5.4234,5.434,5.4351,5.4363,5.4487,5.4396,5.4402,5.4406,5.4682,5.4686,5.469,0,0,0,0,0,0,5.3999,5.402,5.4192,5.4114,5.4135,5.4173,5.422,5.4225,5.4254,5.4295,5.4301,5.4261,5.4338,5.4353,5.4443,5.4491,5.4405,5.4412,5.4678,5.4684,5.4688,5.4736,0,0,0,0,0,0,5.3993,5.4018,5.4058,5.4115,5.414,5.4271,5.4223,5.4229,5.4267,5.4264,5.4319,5.4325,5.4337,5.4432,5.445,5.4499,5.4417,5.4674,5.4681,5.4687,5.473,5.4741,5.4751,0,0,0,0,0,5.3984,5.4065,5.406,5.4081,5.4191,5.4274,5.4288,5.4301,5.4271,5.4311,5.4338,5.4324,5.4483,5.4442,5.4461,5.4513,5.4671,5.4679,5.4686,5.4725,5.4739,5.4751,0,0,0,0,0,0,5.4011,5.4073,5.4068,5.417,5.4218,5.4271,5.4321,5.4316,5.4371,5.4365,5.4377,5.439,5.4481,5.4506,5.4459,5.4616,5.4573,5.4584,5.4596,5.4609,5.462,5.4611,5.4423,0,0,0,0,0,5.4029,5.4093,5.4143,5.4229,5.4253,5.4284,5.432,5.4327,5.4375,5.4394,5.4427,5.4473,5.4534,5.4573,5.4631,5.4734,5.4745,5.4779,5.479,5.4799,5.4808,5.4865,5.4881,5.4714,5.4714,5.4714,0,0,5.4066,5.4108,5.4147,5.4235,5.4272,5.4338,5.43,5.437,5.4418,5.4404,5.4491,5.4517,5.4569,5.4667,5.4711,5.469,5.4857,5.4808,5.4815,5.482,5.4874,5.489,5.4904,5.4719,5.4718,5.4718,0,0,5.4167,5.4206,5.4282,5.4321,5.4379,5.4399,5.4417,5.4472,5.449,5.4578,5.457,5.4626,5.473,5.4768,5.4801,5.4919,5.4908,5.4938,5.4994,5.5049,5.5062,5.5074,5.5116,5.5131,5.4947,5.4948,5.4948,0,5.4205,5.4305,5.432,5.4393,5.4431,5.4425,5.4501,5.4538,5.4611,5.4637,5.4614,5.4746,5.478,5.4886,5.4916,5.4942,5.4963,5.4931,5.5059,5.5071,5.5082,5.5123,5.5138,5.4951,5.495,5.495,5.495,0,5.4349,5.4418,5.4472,5.4546,5.4591,5.4665,5.4691,5.4734,5.4737,5.476,5.485,5.4892,5.4958,5.4984,5.4987,5.5091,5.5077,5.5057,5.5014,5.5101,5.5139,5.5155,5.4955,5.4954,5.4953,5.4952,0,0,5.4467,5.4552,5.4571,5.4605,5.467,5.4723,5.4796,5.4864,5.4901,5.4952,5.5013,5.5103,5.5086,5.5123,5.513,5.5179,5.527,5.5153,5.5154,5.5173,5.5388,5.5402,5.542,5.5264,5.5267,5.527,5.5383,0,5.4574,5.4706,5.4724,5.484,5.4904,5.49,5.4964,5.501,5.5034,5.509,5.5115,5.5179,5.5151,5.5173,5.5222,5.5249,5.5313,5.5241,5.532,5.5322,5.5306,5.544,5.5455,5.556,5.5398,5.5401,5.5403,0,5.4716,5.4775,5.4898,5.4956,5.4983,5.5041,5.5105,5.516,5.5212,5.5225,5.5269,5.5271,5.5346,5.5301,5.5404,5.5355,5.5388,5.5407,5.5411,5.5418,5.5367,5.5449,5.5594,5.5609,5.5426,5.5424,5.5423,0,5.479,5.4899,5.4988,5.5017,5.5086,5.5127,5.5157,5.5207,5.5247,5.5303,5.5329,5.5392,5.5426,5.5475,5.5493,5.5459,5.5595,5.5552,5.5608,5.5607,5.5635,5.5633,5.5786,5.5658,5.5658,5.5658,5.5657,0,5.4908,5.4983,5.5022,5.5077,5.5161,5.518,5.5263,5.5292,5.5336,5.5395,5.5395,5.545,5.5471,5.5529,5.5544,5.5627,5.5643,5.5655,5.5658,5.5655,5.5653,5.5676,5.5668,5.5662,5.5661,5.566,5.566,0,5.5004,5.5033,5.5129,5.5189,5.5205,5.5265,5.5315,5.5367,5.539,5.5465,5.5483,5.552,5.5589,5.5612,5.5695,5.5705,5.5801,5.5798,5.5784,5.5785,5.5839,5.5833,5.6011,5.6036,5.5892,5.5894,5.5895,0,5.5076,5.5135,5.5201,5.5242,5.5275,5.534,5.5382,5.5403,5.5447,5.5512,5.5556,5.5625,5.5681,5.579,5.5823,5.5886,5.5884,5.5942,5.5893,5.5889,5.5885,5.5881,5.5887,5.5951,5.5952,5.5954,5.5955,0,5.5202,5.5214,5.5276,5.5344,5.5394,5.5448,5.5499,5.5532,5.5561,5.561,5.5681,5.5725,5.5811,5.5879,5.5944,5.5973,5.5969,5.597,5.5986,5.5983,5.5973,5.5979,5.5809,5.5966,5.5964,5.5964,5.5963,5.5963,5.5288,5.5341,5.5396,5.5465,5.5507,5.5556,5.5608,5.564,5.5701,5.5774,5.5782,5.5859,5.5911,5.5998,5.6031,5.6091,5.6074,5.6098,5.6103,5.6109,5.6113,5.5965,5.6103,5.6102,5.6102,5.6102,5.6102,0,5.5414,5.545,5.5514,5.5587,5.5642,5.5636,5.5693,5.5738,5.5807,5.5856,5.5912,5.5995,5.6061,5.6101,5.6167,5.6207,5.6207,5.6224,5.622,5.6227,5.6124,5.6103,5.6223,5.6223,5.6223,5.6223,5.6223,5.6223,5.5485,5.5574,5.5593,5.5703,5.5738,5.5815,5.5848,5.5893,5.5933,5.6026,5.6082,5.6109,5.6154,5.6224,5.6285,5.6294,5.6318,5.6337,5.6345,5.6247,5.6235,5.6223,5.6203,5.6342,5.6343,5.6444,5.6445,5.6446]}]]